AFR24 LFPG-KLAX

Flight info

Callsign AFR24
Flight time N/A
Altitude 32000
Route ATREX DCT VESAN DCT RATUK DCT SOVAT L613 LEHOC DCT INPIP DCT GOW DCT BALIX/M084F340 DCT 60N020W 60N030W 60N040W 60N050W DCT RADUN DCT MUSLO/N0473F340 DCT RODBO DCT 59N070W/N0481F360 56N080W DCT ELVEL DCT KP84A DCT KD63U/N0478F380 DCT KU51Q DCT PROMT Q88 GARDD DCT LAKRR Q73 HAKMN ANJLL4
Aircraft B77W/H-SDE1E2E3FGHIJ2J3J4J5M1RWXY/LB1D1

Departure

Time N/A
Airport Charles de Gaulle International Airport (LFPG)

Arrival

Time 2026-04-24 02:35
Airport Los Angeles International Airport (KLAX)
Time Latitude Longitude Altitude Speed Heading
2026-04-24 01:31 37.32328 -112.17523 38099 ft 399 kts 240°
2026-04-24 01:31 37.29042 -112.23119 38092 ft 399 kts 240°
2026-04-24 01:32 37.25721 -112.28766 38093 ft 399 kts 240°
2026-04-24 01:32 37.22411 -112.34382 38085 ft 399 kts 240°
2026-04-24 01:33 37.19107 -112.39980 38076 ft 396 kts 240°
2026-04-24 01:33 37.15857 -112.45481 38079 ft 400 kts 240°
2026-04-24 01:34 37.12535 -112.51088 38069 ft 396 kts 240°
2026-04-24 01:34 37.09226 -112.56670 38070 ft 398 kts 240°
2026-04-24 01:35 37.05920 -112.62233 38062 ft 396 kts 240°
2026-04-24 01:35 37.02673 -112.67841 38079 ft 396 kts 240°
2026-04-24 01:36 36.99452 -112.73486 38072 ft 396 kts 240°
2026-04-24 01:36 36.96250 -112.79081 38064 ft 396 kts 240°
2026-04-24 01:37 36.93052 -112.84653 38064 ft 395 kts 240°
2026-04-24 01:37 36.89844 -112.90234 38066 ft 396 kts 240°
2026-04-24 01:38 36.86597 -112.95870 38060 ft 398 kts 240°
2026-04-24 01:38 36.83385 -113.01434 38053 ft 396 kts 240°
2026-04-24 01:39 36.80146 -113.07038 38050 ft 396 kts 240°
2026-04-24 01:39 36.76914 -113.12619 38046 ft 396 kts 240°
2026-04-24 01:40 36.73702 -113.18158 38050 ft 397 kts 240°
2026-04-24 01:40 36.70476 -113.23711 38049 ft 397 kts 240°
2026-04-24 01:41 36.67224 -113.29300 38043 ft 397 kts 240°
2026-04-24 01:41 36.63969 -113.34885 38043 ft 398 kts 240°
2026-04-24 01:42 36.60711 -113.40465 38043 ft 399 kts 240°
2026-04-24 01:42 36.57433 -113.46071 38044 ft 399 kts 239°
2026-04-24 01:43 36.54189 -113.51608 38044 ft 399 kts 239°
2026-04-24 01:43 36.50927 -113.57168 38035 ft 398 kts 239°
2026-04-24 01:44 36.47664 -113.62721 38033 ft 400 kts 239°
2026-04-24 01:44 36.44378 -113.68303 38041 ft 400 kts 239°
2026-04-24 01:45 36.41096 -113.73869 38036 ft 398 kts 239°
2026-04-24 01:45 36.37828 -113.79402 38026 ft 399 kts 239°
2026-04-24 01:46 36.34535 -113.84972 38014 ft 401 kts 239°
2026-04-24 01:46 36.31239 -113.90534 37988 ft 401 kts 239°
2026-04-24 01:47 36.28005 -113.95982 37968 ft 398 kts 239°
2026-04-24 01:47 36.24698 -114.01547 37936 ft 402 kts 239°
2026-04-24 01:48 36.21384 -114.07112 37959 ft 400 kts 238°
2026-04-24 01:48 36.18088 -114.12639 37971 ft 400 kts 239°
2026-04-24 01:49 36.14784 -114.18170 37973 ft 399 kts 239°
2026-04-24 01:49 36.11457 -114.23734 37972 ft 401 kts 239°
2026-04-24 01:50 36.08096 -114.29191 37956 ft 404 kts 235°
2026-04-24 01:50 36.04360 -114.34399 37948 ft 403 kts 234°
2026-04-24 01:51 36.00622 -114.39582 37947 ft 407 kts 234°
2026-04-24 01:51 35.96864 -114.44782 37944 ft 404 kts 234°
2026-04-24 01:52 35.93100 -114.49985 37947 ft 407 kts 234°
2026-04-24 01:52 35.89335 -114.55178 37947 ft 406 kts 234°
2026-04-24 01:53 35.85557 -114.60382 37944 ft 405 kts 234°
2026-04-24 01:53 35.81778 -114.65580 37933 ft 406 kts 234°
2026-04-24 01:54 35.77982 -114.70792 37940 ft 408 kts 234°
2026-04-24 01:54 35.74218 -114.75951 37933 ft 406 kts 234°
2026-04-24 01:55 35.70450 -114.81110 37936 ft 405 kts 233°
2026-04-24 01:55 35.66672 -114.86275 37946 ft 407 kts 233°
2026-04-24 01:56 35.62886 -114.91456 37958 ft 407 kts 233°
2026-04-24 01:56 35.59096 -114.96639 37964 ft 408 kts 233°
2026-04-24 01:57 35.55309 -115.01810 37981 ft 409 kts 233°
2026-04-24 01:57 35.51510 -115.06987 37986 ft 407 kts 233°
2026-04-24 01:58 35.47614 -115.12158 37995 ft 410 kts 232°
2026-04-24 01:58 35.43707 -115.17248 37989 ft 410 kts 232°
2026-04-24 01:59 35.39793 -115.22347 37998 ft 410 kts 232°
2026-04-24 01:59 35.35891 -115.27428 38004 ft 411 kts 232°
2026-04-24 02:00 35.31961 -115.32539 38006 ft 410 kts 232°
2026-04-24 02:00 35.28068 -115.37595 38014 ft 410 kts 232°
2026-04-24 02:01 35.24143 -115.42687 38015 ft 411 kts 232°
2026-04-24 02:01 35.20187 -115.47810 38010 ft 413 kts 232°
2026-04-24 02:02 35.16280 -115.52863 38006 ft 411 kts 232°
2026-04-24 02:02 35.12349 -115.57938 38000 ft 411 kts 232°
2026-04-24 02:03 35.06393 -115.65564 37986 ft 412 kts 231°
2026-04-24 02:03 35.02413 -115.70647 37971 ft 412 kts 231°
2026-04-24 02:04 34.98454 -115.75697 37947 ft 412 kts 231°
2026-04-24 02:04 34.94467 -115.80776 37943 ft 412 kts 231°
2026-04-24 02:05 34.90509 -115.85809 37954 ft 413 kts 231°
2026-04-24 02:05 34.86496 -115.90905 37957 ft 414 kts 232°
2026-04-24 02:06 34.82506 -115.95963 37955 ft 412 kts 231°
2026-04-24 02:06 34.78538 -116.00987 37968 ft 410 kts 231°
2026-04-24 02:07 34.74637 -116.05939 37963 ft 395 kts 232°
2026-04-24 02:07 34.72774 -116.08310 37887 ft 381 kts 232°
2026-04-24 02:07 34.70955 -116.10628 37399 ft 377 kts 232°
2026-04-24 02:08 34.69142 -116.12941 36512 ft 383 kts 232°
2026-04-24 02:08 34.67283 -116.15313 35451 ft 391 kts 231°
2026-04-24 02:08 34.65385 -116.17729 34489 ft 397 kts 231°
2026-04-24 02:08 34.63462 -116.20173 33627 ft 401 kts 231°
2026-04-24 02:09 34.61548 -116.22602 32811 ft 403 kts 231°
2026-04-24 02:09 34.59590 -116.25085 31863 ft 409 kts 231°
2026-04-24 02:09 34.57613 -116.27592 30911 ft 414 kts 231°
2026-04-24 02:09 34.55632 -116.30099 30334 ft 410 kts 231°
2026-04-24 02:10 34.53682 -116.32563 29929 ft 403 kts 231°
2026-04-24 02:10 34.51766 -116.34984 29505 ft 397 kts 231°
2026-04-24 02:10 34.49855 -116.37397 29054 ft 392 kts 231°
2026-04-24 02:10 34.47993 -116.39747 28616 ft 387 kts 231°
2026-04-24 02:11 34.46113 -116.42123 28170 ft 397 kts 231°
2026-04-24 02:11 34.44199 -116.44540 27702 ft 405 kts 231°
2026-04-24 02:11 34.42306 -116.47102 27215 ft 398 kts 237°
2026-04-24 02:11 34.40831 -116.49847 26753 ft 389 kts 245°
2026-04-24 02:12 34.39614 -116.52735 26309 ft 384 kts 247°
2026-04-24 02:12 34.38440 -116.55589 25858 ft 381 kts 247°
2026-04-24 02:12 34.37249 -116.58482 25404 ft 379 kts 247°
2026-04-24 02:12 34.36070 -116.61343 24948 ft 379 kts 247°
2026-04-24 02:13 34.34891 -116.64200 24482 ft 377 kts 247°
2026-04-24 02:13 34.33725 -116.67025 24040 ft 375 kts 246°
2026-04-24 02:13 34.32593 -116.69798 23695 ft 368 kts 248°
2026-04-24 02:13 34.31477 -116.72582 23254 ft 365 kts 247°
2026-04-24 02:14 34.30379 -116.75320 22809 ft 361 kts 247°
2026-04-24 02:14 34.29278 -116.78064 22363 ft 358 kts 247°
2026-04-24 02:14 34.28199 -116.80746 21932 ft 355 kts 247°
2026-04-24 02:14 34.27125 -116.83413 21497 ft 354 kts 247°
2026-04-24 02:15 34.26053 -116.86073 21065 ft 352 kts 247°
2026-04-24 02:15 34.24975 -116.88745 20630 ft 351 kts 247°
2026-04-24 02:15 34.23904 -116.91396 20202 ft 348 kts 247°
2026-04-24 02:15 34.22851 -116.94000 19776 ft 346 kts 247°
2026-04-24 02:16 34.21793 -116.96615 19343 ft 344 kts 247°
2026-04-24 02:16 34.20861 -116.99250 18911 ft 339 kts 253°
2026-04-24 02:16 34.20126 -117.01934 18607 ft 336 kts 254°
2026-04-24 02:16 34.19401 -117.04629 18297 ft 338 kts 255°
2026-04-24 02:17 34.18678 -117.07310 17993 ft 336 kts 254°
2026-04-24 02:17 34.17948 -117.10008 17661 ft 335 kts 254°
2026-04-24 02:17 34.17225 -117.12678 17327 ft 333 kts 254°
2026-04-24 02:17 34.16509 -117.15318 16983 ft 332 kts 254°
2026-04-24 02:18 34.15789 -117.17948 16671 ft 333 kts 254°
2026-04-24 02:18 34.15061 -117.20596 16311 ft 336 kts 254°
2026-04-24 02:18 34.14323 -117.23277 15929 ft 334 kts 254°
2026-04-24 02:18 34.13589 -117.25938 15566 ft 333 kts 254°
2026-04-24 02:19 34.12861 -117.28580 15194 ft 332 kts 254°
2026-04-24 02:19 34.12131 -117.31229 14826 ft 329 kts 254°
2026-04-24 02:19 34.11412 -117.33833 14467 ft 328 kts 254°
2026-04-24 02:19 34.10696 -117.36423 14107 ft 326 kts 254°
2026-04-24 02:20 34.10009 -117.38998 13731 ft 323 kts 255°
2026-04-24 02:20 34.09375 -117.41578 13314 ft 319 kts 256°
2026-04-24 02:20 34.08743 -117.44142 12905 ft 316 kts 255°
2026-04-24 02:20 34.08115 -117.46666 12504 ft 313 kts 255°
2026-04-24 02:21 34.07494 -117.49161 12105 ft 310 kts 257°
2026-04-24 02:21 34.07034 -117.51712 11744 ft 305 kts 261°
2026-04-24 02:21 34.06672 -117.54185 11375 ft 296 kts 262°
2026-04-24 02:21 34.06325 -117.56587 11127 ft 280 kts 262°
2026-04-24 02:22 34.05994 -117.58862 10910 ft 270 kts 261°
2026-04-24 02:22 34.05668 -117.61083 10609 ft 264 kts 261°
2026-04-24 02:22 34.05352 -117.63232 10341 ft 259 kts 262°
2026-04-24 02:22 34.05038 -117.65356 10089 ft 254 kts 261°
2026-04-24 02:23 34.04738 -117.67390 9832 ft 251 kts 261°
2026-04-24 02:23 34.04431 -117.69461 9569 ft 249 kts 261°
2026-04-24 02:23 34.04127 -117.71510 9311 ft 246 kts 261°
2026-04-24 02:23 34.03830 -117.73515 9062 ft 243 kts 261°
2026-04-24 02:24 34.03532 -117.75522 8814 ft 240 kts 261°
2026-04-24 02:24 34.03240 -117.77483 8566 ft 238 kts 261°
2026-04-24 02:24 34.02946 -117.79460 8320 ft 235 kts 261°
2026-04-24 02:24 34.02659 -117.81384 8073 ft 232 kts 261°
2026-04-24 02:25 34.02373 -117.83301 7839 ft 227 kts 261°
2026-04-24 02:25 34.02095 -117.85164 7609 ft 223 kts 261°
2026-04-24 02:25 34.01823 -117.86982 7401 ft 218 kts 261°
2026-04-24 02:25 34.01553 -117.88788 7164 ft 216 kts 261°
2026-04-24 02:26 34.01284 -117.90581 6936 ft 213 kts 261°
2026-04-24 02:26 34.01023 -117.92320 6718 ft 210 kts 261°
2026-04-24 02:26 34.00760 -117.94071 6497 ft 207 kts 261°
2026-04-24 02:26 34.00507 -117.95756 6290 ft 204 kts 261°
2026-04-24 02:27 34.00251 -117.97456 6079 ft 201 kts 261°
2026-04-24 02:27 34.00005 -117.99092 5876 ft 195 kts 261°
2026-04-24 02:27 33.99764 -118.00689 5669 ft 190 kts 261°
2026-04-24 02:27 33.99529 -118.02248 5473 ft 187 kts 261°
2026-04-24 02:28 33.99294 -118.03804 5281 ft 187 kts 261°
2026-04-24 02:28 33.99059 -118.05356 5091 ft 186 kts 261°
2026-04-24 02:28 33.98827 -118.06893 4900 ft 185 kts 261°
2026-04-24 02:28 33.98594 -118.08429 4706 ft 184 kts 261°
2026-04-24 02:29 33.98364 -118.09945 4516 ft 184 kts 261°
2026-04-24 02:29 33.98121 -118.11459 4325 ft 184 kts 255°
2026-04-24 02:29 33.97587 -118.12866 4139 ft 184 kts 242°
2026-04-24 02:29 33.96940 -118.14211 3945 ft 183 kts 241°
2026-04-24 02:30 33.96294 -118.15546 3751 ft 182 kts 243°
2026-04-24 02:30 33.95903 -118.16971 3559 ft 179 kts 262°
2026-04-24 02:30 33.95738 -118.18480 3307 ft 179 kts 264°
2026-04-24 02:30 33.95593 -118.19968 3059 ft 176 kts 264°
2026-04-24 02:31 33.95447 -118.21426 2801 ft 173 kts 264°
2026-04-24 02:31 33.95304 -118.22845 2589 ft 165 kts 264°
2026-04-24 02:31 33.95170 -118.24167 2390 ft 156 kts 263°
2026-04-24 02:31 33.95042 -118.25430 2187 ft 148 kts 263°
2026-04-24 02:32 33.94919 -118.26641 1999 ft 145 kts 263°
2026-04-24 02:32 33.94796 -118.27856 1803 ft 144 kts 263°
2026-04-24 02:32 33.94675 -118.29050 1609 ft 143 kts 263°
2026-04-24 02:32 33.94552 -118.30257 1389 ft 142 kts 263°
2026-04-24 02:33 33.94432 -118.31435 1142 ft 141 kts 263°
2026-04-24 02:33 33.94314 -118.32601 1035 ft 141 kts 263°
2026-04-24 02:33 33.94183 -118.33762 901 ft 139 kts 262°
2026-04-24 02:33 33.94064 -118.34930 713 ft 139 kts 263°
2026-04-24 02:34 33.93960 -118.36071 497 ft 139 kts 263°
2026-04-24 02:34 33.93845 -118.37217 313 ft 138 kts 263°
2026-04-24 02:34 33.93729 -118.38369 136 ft 136 kts 263°
2026-04-24 02:34 33.93626 -118.39381 117 ft 108 kts 262°
2026-04-24 02:35 33.93546 -118.40138 127 ft 73 kts 263°
2026-04-24 02:35 33.93499 -118.40595 132 ft 38 kts 263°
2026-04-24 02:35 33.93479 -118.40829 134 ft 24 kts 266°
2026-04-24 02:35 33.93489 -118.41028 134 ft 22 kts 284°
2026-04-24 02:36 33.93539 -118.41191 134 ft 17 kts 281°
2026-04-24 02:36 33.93536 -118.41330 133 ft 16 kts 262°
2026-04-24 02:36 33.93521 -118.41464 132 ft 16 kts 263°
2026-04-24 02:36 33.93507 -118.41599 131 ft 16 kts 263°
2026-04-24 02:37 33.93494 -118.41729 128 ft 10 kts 264°
2026-04-24 02:37 33.93490 -118.41821 126 ft 11 kts 276°
2026-04-24 02:37 33.93533 -118.41903 125 ft 12 kts 335°
2026-04-24 02:37 33.93619 -118.41928 125 ft 10 kts 353°
2026-04-24 02:38 33.93676 -118.41897 125 ft 11 kts 62°
2026-04-24 02:38 33.93701 -118.41747 128 ft 19 kts 82°
2026-04-24 02:38 33.93717 -118.41589 130 ft 18 kts 84°
2026-04-24 02:38 33.93733 -118.41428 132 ft 20 kts 83°
2026-04-24 02:39 33.93748 -118.41280 133 ft 11 kts 83°
2026-04-24 02:39 33.93754 -118.41215 133 ft 7 kts 84°
2026-04-24 02:39 33.93775 -118.41161 134 ft 6 kts 27°
2026-04-24 02:39 33.93853 -118.41162 133 ft 18 kts 354°
2026-04-24 02:40 33.93956 -118.41177 133 ft 8 kts 353°
2026-04-24 02:40 33.94007 -118.41151 132 ft 8 kts 62°
2026-04-24 02:40 33.94017 -118.41104 133 ft 4 kts 84°
2026-04-24 02:40 33.94020 -118.41078 133 ft 0 kts 83°